Temp
-9 -9 -9 -8 -8 -7 -7 -6 -4 -3 -2 -2 -0 2 6 11 13 13 13 13 13 13 14 14 13 13 14 14 14 14 14 15 13 11 11 12 11 12 12 12 12 12 12
-8 -9 -9 -8 -8 -7 -7 -6 -4 -3 -2 -1 0 3 5 9 13 14 13 13 13 12 13 14 13 13 13 13 13 13 14 15 14 11 10 10 11 11 11 12 12 12 12
-9 -9 -9 -8 -8 -7 -7 -5 -3 -2 -1 0 2 4 5 8 11 13 13 12 12 12 12 13 13 13 13 12 13 13 13 14 14 14 10 10 10 12 10 11 12 12 12
-8 -9 -9 -9 -8 -7 -7 -5 -4 -3 -2 -0 2 5 5 7 10 12 13 12 12 12 12 12 13 13 13 12 12 12 12 12 12 13 11 10 10 10 10 10 9 10 11
-9 -9 -9 -9 -8 -7 -7 -5 -4 -3 -3 -1 1 1 2 4 4 10 12 13 12 12 12 12 13 13 13 13 13 12 12 12 11 12 12 10 10 10 9 10 11 10 10
-9 -9 -9 -9 -8 -8 -7 -6 -5 -4 -4 -2 -2 -1 0 1 2 7 11 12 12 12 12 11 12 12 13 13 13 13 13 12 12 12 12 12 11 11 10 10 10 10 10
-9 -9 -9 -8 -9 -8 -7 -6 -6 -5 -4 -4 -3 -2 -2 0 1 3 8 11 12 12 12 11 11 11 12 13 13 13 13 13 13 12 12 12 12 11 11 10 10 10 12
-8 -9 -9 -8 -8 -8 -8 -7 -6 -6 -5 -5 -4 -4 -3 -1 -0 1 6 9 11 11 11 11 11 11 12 12 12 11 12 12 12 13 13 14 13 13 12 12 11 11 11
-9 -9 -9 -8 -8 -8 -8 -8 -7 -6 -6 -6 -5 -5 -4 -2 -1 -1 2 4 7 8 11 11 11 11 11 12 11 10 11 11 11 12 13 14 14 14 14 12 10 10 10
-9 -9 -9 -8 -8 -8 -7 -8 -7 -6 -6 -6 -6 -6 -4 -3 -2 -1 -1 -0 1 3 5 8 11 11 12 12 11 11 10 11 10 10 11 12 13 13 14 13 11 10 11
-9 -9 -8 -8 -8 -8 -7 -7 -7 -7 -6 -7 -6 -6 -5 -4 -3 -2 -2 -2 -2 -1 0 1 4 6 8 11 11 11 11 11 11 10 10 11 11 12 12 12 12 12 11
-9 -9 -9 -8 -8 -8 -8 -7 -7 -7 -7 -6 -7 -6 -6 -5 -4 -3 -3 -2 -2 -2 -2 -0 0 2 4 7 9 11 11 11 11 10 10 10 11 10 10 11 11 12 12
-8 -9 -9 -9 -9 -8 -8 -8 -8 -8 -7 -7 -7 -6 -6 -6 -5 -4 -4 -4 -3 -3 -3 -3 0 2 4 7 9 10 11 10 10 10 11 10 11 11 11 10 11 11 12
-9 -9 -9 -10 -9 -9 -8 -8 -7 -7 -7 -7 -7 -7 -6 -6 -5 -5 -5 -5 -5 -5 -4 -3 -2 1 1 2 5 7 9 10 10 10 11 11 11 11 10 10 10 10 10
-9 -10 -10 -10 -10 -9 -9 -9 -8 -7 -6 -7 -7 -7 -7 -6 -6 -5 -5 -5 -6 -6 -5 -5 -5 -5 -4 -4 -2 -1 1 6 9 10 10 11 10 10 10 10 10 10 10
-9 -10 -10 -10 -10 -10 -10 -9 -9 -8 -7 -7 -6 -6 -7 -6 -6 -6 -6 -6 -7 -7 -8 -8 -8 -8 -8 -7 -7 -6 -4 -3 -1 2 8 10 10 10 10 10 9 10 10
-10 -10 -10 -11 -10 -10 -10 -11 -10 -9 -9 -9 -8 -7 -7 -7 -7 -7 -8 -8 -8 -8 -9 -9 -9 -9 -9 -9 -8 -7 -7 -6 -4 -3 -1 3 6 10 10 9 9 9 10
-10 -11 -11 -11 -11 -11 -11 -11 -11 -11 -11 -11 -10 -9 -9 -9 -9 -9 -9 -9 -10 -10 -11 -11 -10 -10 -10 -10 -9 -8 -7 -6 -6 -5 -4 -3 -0 2 6 8 9 9 9
-11 -11 -11 -11 -11 -11 -11 -11 -11 -11 -11 -11 -10 -10 -10 -10 -10 -10 -11 -12 -12 -12 -12 -11 -11 -11 -11 -10 -10 -9 -9 -8 -7 -6 -6 -5 -4 -2 -0 1 4 7 8
-11 -12 -11 -11 -11 -11 -11 -11 -11 -11 -12 -11 -11 -10 -11 -11 -12 -12 -12 -12 -12 -12 -12 -12 -12 -11 -11 -11 -10 -10 -9 -9 -8 -7 -7 -6 -5 -5 -3 -2 -0 1 3
-12 -12 -12 -12 -11 -11 -11 -11 -11 -12 -12 -12 -12 -10 -10 -12 -12 -12 -12 -12 -13 -13 -13 -13 -13 -12 -11 -11 -11 -10 -10 -10 -9 -8 -8 -7 -6 -6 -5 -4 -3 -2 -1
-12 -13 -13 -12 -12 -11 -11 -11 -11 -12 -12 -12 -12 -12 -11 -12 -12 -12 -13 -13 -13 -13 -13 -13 -12 -12 -12 -11 -11 -10 -10 -10 -10 -9 -8 -8 -7 -6 -6 -5 -5 -4 -3
-13 -13 -13 -13 -12 -12 -12 -11 -11 -12 -12 -12 -12 -12 -12 -12 -12 -12 -12 -13 -13 -13 -13 -12 -12 -12 -11 -11 -10 -10 -10 -10 -10 -10 -9 -8 -8 -7 -7 -6 -6 -5 -4
-12 -13 -13 -13 -13 -12 -12 -12 -12 -12 -12 -12 -12 -12 -12 -12 -12 -12 -13 -13 -13 -13 -13 -13 -13 -12 -12 -11 -11 -10 -9 -10 -10 -10 -9 -9 -8 -8 -8 -7 -7 -6 -5
-12 -12 -13 -13 -13 -12 -12 -12 -12 -12 -12 -12 -12 -12 -12 -12 -12 -12 -12 -13 -13 -13 -13 -13 -13 -13 -12 -12 -11 -11 -10 -10 -10 -10 -10 -9 -9 -9 -8 -8 -8 -7 -7
-13 -13 -13 -13 -13 -13 -13 -13 -13 -13 -13 -13 -13 -13 -13 -12 -12 -12 -12 -12 -13 -13 -13 -13 -13 -13 -13 -12 -12 -12 -11 -10 -11 -11 -10 -10 -10 -9 -9 -9 -8 -8 -8
Height
747 739 731 723 716 710 705 699 694 690 683 684 685 682 676 677 682 681 690 699 711 721 732 741 747 754 763 769 775 780 786 793 803 810 814 818 824 829 835 839 842 844 847
746 737 728 720 713 706 700 694 690 681 680 678 677 676 674 673 678 684 686 691 702 711 723 733 739 746 756 762 769 774 779 787 796 802 808 812 817 822 828 833 835 838 841
744 736 726 718 711 704 696 692 683 681 673 673 674 673 672 673 677 678 683 689 696 702 714 723 731 738 747 754 761 768 773 780 788 794 801 806 812 817 823 827 830 833 836
743 736 727 717 709 701 694 688 684 679 678 674 672 672 670 673 672 675 682 685 691 699 707 716 724 728 737 745 752 761 767 774 781 788 794 799 806 811 815 819 822 826 829
744 737 729 719 710 702 696 688 678 677 672 671 669 670 667 665 668 669 678 683 689 693 701 705 715 720 729 735 743 753 760 767 774 780 787 792 798 803 805 812 816 820 823
745 739 731 721 712 706 697 696 687 685 677 673 674 674 670 676 669 662 675 677 684 690 696 701 708 717 723 730 735 744 750 756 764 771 778 782 787 793 799 805 810 814 818
746 740 734 727 718 709 701 694 686 679 677 677 679 676 674 673 668 665 669 672 679 684 689 694 701 707 717 724 731 740 744 748 752 758 766 771 778 783 789 797 801 804 805
747 742 737 731 725 717 708 699 697 686 682 684 682 678 679 676 680 672 671 669 676 680 684 688 694 702 709 718 726 733 737 742 747 752 757 760 766 773 779 783 788 795 803
748 745 741 736 731 723 715 706 698 693 691 690 689 685 684 683 680 677 674 673 673 677 684 687 691 695 701 711 719 722 730 735 740 746 751 755 759 764 771 778 785 791 793
750 747 744 740 735 730 724 716 709 704 704 701 695 694 692 690 685 683 674 677 678 680 683 685 688 691 696 703 709 716 721 727 733 740 747 750 754 756 762 766 771 776 782
753 749 745 742 738 734 729 723 718 712 710 706 701 698 698 698 698 696 692 685 686 684 686 686 685 690 693 698 702 708 711 720 724 729 737 740 747 747 752 758 762 766 769
754 751 748 744 741 738 734 730 724 721 718 712 709 711 714 714 707 702 698 693 694 688 690 687 688 690 690 690 696 698 704 713 718 722 727 730 734 737 742 747 753 757 760
753 752 751 748 744 741 738 735 730 728 724 720 715 716 719 712 707 704 700 699 699 692 692 691 689 690 689 688 689 691 697 704 708 712 716 718 721 727 734 739 742 747 753
754 752 751 750 747 744 742 738 735 731 729 729 730 727 721 719 718 716 709 704 702 698 696 693 692 689 689 686 685 688 692 693 697 701 705 709 716 719 722 726 732 737 742
753 753 752 750 748 746 744 742 740 736 733 732 731 731 728 726 723 718 713 713 708 700 697 692 691 688 687 689 688 689 688 689 692 691 694 699 704 707 711 715 720 727 729
753 752 752 751 749 748 746 743 742 741 739 737 734 731 730 729 726 722 717 710 707 706 703 702 703 700 698 698 697 694 692 690 688 687 686 689 691 695 699 705 709 712 718
751 752 752 751 751 749 747 745 744 743 742 740 739 736 733 731 727 724 723 724 721 713 712 711 713 710 707 704 702 699 697 696 692 688 686 682 683 685 687 691 696 700 703
750 751 751 751 751 751 750 749 747 745 744 742 741 740 738 736 734 732 728 722 719 719 722 723 721 718 718 710 705 701 698 695 694 690 686 685 682 679 680 681 682 688 693
748 749 749 750 750 751 751 750 750 748 747 745 743 742 741 740 738 735 733 730 731 729 726 724 723 720 719 716 710 706 704 700 696 695 689 689 685 680 677 678 677 678 682
746 747 749 749 750 751 752 752 751 751 751 750 747 745 743 740 739 738 736 736 734 733 732 731 727 723 722 720 714 714 708 704 698 697 694 689 688 685 678 676 675 674 677
745 746 748 748 750 751 752 753 752 752 752 753 752 750 748 745 744 742 740 739 737 736 735 733 731 727 725 723 719 718 713 710 704 702 696 696 691 687 683 673 676 672 674
744 745 746 747 749 750 752 752 753 753 753 753 752 751 750 749 748 745 743 741 739 737 736 736 733 731 729 727 726 723 719 715 708 704 698 698 692 687 681 679 676 671 671
744 745 746 747 749 750 751 752 753 753 753 753 752 750 749 748 747 746 745 744 743 741 739 736 734 733 733 730 729 725 722 718 712 709 706 700 691 690 684 680 680 678 673
744 745 746 747 748 750 751 751 752 752 753 752 752 751 750 749 747 746 745 743 741 741 740 739 738 736 733 729 726 724 721 719 715 711 707 703 701 690 686 683 678 680 679
745 746 746 747 748 749 750 750 751 751 751 751 751 750 749 748 747 745 744 742 741 739 738 737 735 734 733 730 729 726 724 721 719 714 712 708 702 695 690 688 688 685 685
746 747 747 748 748 749 749 749 749 749 749 748 748 747 746 745 744 743 742 741 741 739 738 736 734 732 731 730 729 727 724 722 720 715 713 707 703 700 697 692 692 691 689
Wind_Speed
30 31 29 27 24 23 20 21 20 18 20 21 23 22 13 17 24 34 44 46 45 41 39 40 39 38 36 36 34 34 32 25 7 9 18 25 32 39 38 36 34 32 31
29 32 29 27 26 24 20 18 14 13 15 18 17 16 15 10 21 28 29 43 44 39 39 39 38 38 36 37 36 32 32 33 19 10 17 24 22 35 37 40 39 37 35
30 31 30 29 28 26 24 16 12 12 13 12 12 11 9 11 17 22 39 34 44 42 40 38 38 40 37 34 36 33 32 35 28 19 12 18 26 26 30 34 38 38 38
29 30 30 31 30 29 27 21 15 11 6 4 1 2 3 7 11 25 23 29 42 44 41 40 41 42 41 38 38 35 33 30 28 24 16 16 20 23 28 29 26 28 36
27 28 32 32 31 31 27 25 23 18 15 14 14 15 18 19 13 13 25 33 26 32 37 38 38 43 44 43 39 35 34 32 27 25 19 13 18 17 26 21 25 25 31
25 27 31 34 34 31 28 24 19 17 23 25 24 21 30 24 25 6 21 25 34 36 32 37 37 38 42 44 45 42 43 40 30 28 25 23 23 26 24 26 23 22 18
24 26 28 33 32 32 28 28 26 25 26 28 25 28 29 32 32 19 11 25 30 35 38 36 32 36 41 44 43 44 43 44 43 40 34 28 27 28 31 27 29 28 27
23 26 28 30 33 31 29 26 24 26 26 25 27 29 29 35 32 28 8 10 20 30 33 36 37 32 41 40 38 41 42 45 46 41 37 40 38 37 37 38 38 33 24
22 24 25 25 29 32 31 28 27 28 27 26 27 31 32 32 34 35 19 14 11 10 20 34 36 33 37 42 38 36 36 36 42 45 42 41 42 41 39 34 24 25 20
18 20 22 22 24 29 28 29 27 24 23 22 27 30 27 30 36 36 33 26 17 12 6 6 32 38 40 42 42 35 34 34 31 37 40 37 38 39 39 40 36 30 23
14 16 19 21 20 24 27 28 28 24 22 25 26 31 33 30 30 31 30 29 22 16 12 11 7 0 9 37 44 38 37 36 35 34 37 38 38 38 42 42 37 37 30
11 13 16 19 20 19 24 27 28 23 22 23 23 23 24 24 27 28 29 27 23 20 16 15 15 18 15 20 43 46 36 35 30 32 31 34 34 34 36 41 39 41 38
12 12 13 15 17 17 20 24 23 20 21 22 24 21 20 26 29 30 29 27 23 23 18 14 13 14 15 13 28 43 42 35 31 27 32 32 35 37 36 37 41 42 42
8 11 12 14 15 16 16 21 23 19 18 18 18 18 21 24 25 26 27 27 24 23 19 17 14 13 13 12 6 17 36 37 34 33 32 32 32 32 34 37 35 36 34
5 6 8 11 13 15 14 15 18 20 19 17 17 19 20 22 26 26 26 27 25 21 21 25 27 25 25 24 20 17 8 8 25 35 34 31 30 32 33 35 35 33 33
5 5 5 7 10 11 14 14 14 16 17 19 20 22 20 21 24 25 23 26 27 20 23 23 21 21 21 21 22 22 21 19 15 9 17 30 33 34 34 34 35 33 32
4 4 4 3 6 9 12 13 12 15 14 17 20 21 22 22 23 24 21 18 24 26 24 23 21 20 19 18 20 20 20 21 18 16 14 9 14 29 35 32 34 33 30
5 4 4 1 2 5 7 9 11 12 13 15 19 19 21 21 21 22 22 24 28 27 22 20 19 20 20 20 20 21 21 21 21 18 15 14 10 8 14 27 31 31 29
4 3 4 4 1 1 4 6 9 11 13 15 18 19 21 18 19 21 22 23 18 19 20 20 21 21 22 22 22 20 19 18 17 19 17 15 14 10 10 13 12 22 29
3 3 3 3 5 4 3 4 6 9 11 13 15 18 19 19 20 20 20 19 18 17 17 16 18 20 21 23 23 21 21 20 20 18 18 17 14 11 7 7 7 9 14
2 3 5 5 5 5 4 3 4 6 7 9 11 13 14 15 14 15 15 16 16 15 15 15 15 17 20 21 23 22 23 22 21 18 17 15 13 12 9 7 6 3 7
1 3 6 6 6 5 3 2 2 2 4 5 8 10 11 12 12 13 12 14 15 15 15 14 15 14 15 17 18 20 22 22 22 20 18 15 13 12 10 9 6 5 0
1 3 3 4 6 4 4 3 1 1 2 3 6 9 10 10 11 11 12 12 12 13 13 14 14 13 12 14 15 17 16 20 18 18 16 14 14 13 12 12 10 8 7
3 2 2 3 3 4 4 3 2 2 4 6 7 7 9 10 11 11 10 11 11 11 11 11 11 11 10 10 15 15 15 17 18 15 15 15 13 14 14 14 13 12 10
2 3 3 3 3 3 2 1 2 4 7 8 9 9 10 10 11 11 10 10 10 11 11 11 11 10 10 9 8 10 16 14 14 14 13 13 15 14 14 14 12 12 9
4 3 2 2 1 1 2 4 5 6 7 9 9 10 11 11 11 11 11 10 10 10 10 11 11 11 10 9 7 11 12 9 14 12 12 13 14 16 13 13 13 13 12
Wind_Direction
338 332 329 325 331 318 302 287 277 277 290 278 271 268 255 215 224 192 185 184 188 190 195 194 190 189 189 190 189 189 186 188 164 179 207 210 208 211 212 215 220 218 217
344 335 331 333 340 327 313 299 288 304 291 276 272 267 253 215 203 205 196 186 188 183 192 191 189 187 192 192 191 189 191 200 196 167 195 204 209 211 215 218 220 222 223
349 344 338 341 337 335 335 327 355 319 312 285 269 253 248 225 212 198 192 189 189 186 188 190 188 188 189 189 193 193 193 197 197 194 183 201 209 213 210 220 221 224 225
356 352 341 345 341 346 348 2 3 11 348 8 300 64 76 240 226 201 201 189 191 193 189 192 191 192 193 190 193 194 193 191 193 195 191 189 198 210 211 209 214 219 224
1 360 352 349 355 354 1 9 20 20 34 49 59 60 56 60 35 170 203 201 197 191 194 191 195 197 197 197 194 197 195 194 192 192 197 187 191 198 204 209 213 213 221
3 6 3 360 2 353 4 13 20 28 43 53 57 51 48 35 16 119 197 201 201 201 199 193 195 199 200 201 204 204 201 196 194 196 201 204 201 201 199 202 202 203 214
5 10 11 8 2 359 2 14 15 29 41 45 45 48 43 31 24 23 207 203 205 202 197 192 189 199 203 202 210 210 211 210 210 204 204 206 203 203 202 196 203 208 219
8 10 13 13 10 7 10 9 16 32 37 39 39 38 39 35 27 25 68 158 201 196 191 191 192 191 201 200 204 207 213 216 215 215 212 214 214 217 210 211 210 211 219
5 7 12 15 16 14 14 13 18 27 32 35 39 39 34 31 29 28 40 57 80 90 199 200 199 195 201 207 202 204 211 216 219 221 222 226 228 225 225 209 197 194 213
2 2 10 16 21 20 23 26 28 29 32 38 41 37 35 30 28 26 34 30 27 23 43 69 199 206 215 215 209 207 207 212 210 215 219 224 227 225 230 222 205 199 208
358 5 10 16 21 24 28 33 37 30 30 36 42 37 33 29 28 28 31 33 22 24 16 3 55 302 222 222 219 212 210 212 210 210 214 216 221 217 220 221 212 210 206
3 8 12 15 19 25 28 34 38 36 34 29 37 38 30 25 29 25 28 30 23 36 11 360 341 331 313 236 226 218 214 215 209 207 210 212 214 215 215 215 215 223 222
352 9 15 18 18 26 30 28 29 31 36 36 32 28 23 23 25 23 24 20 21 25 20 11 358 345 327 299 237 229 226 214 209 207 214 215 215 216 213 214 218 224 227
349 355 6 20 17 29 34 31 31 31 34 41 43 26 21 26 24 22 19 19 19 22 24 27 24 26 20 7 312 239 229 216 213 213 216 217 218 212 206 206 207 210 215
334 356 5 6 21 27 36 31 34 38 35 35 36 35 27 27 19 19 22 21 18 22 30 34 30 28 27 17 12 4 345 259 228 218 216 215 213 209 208 206 206 208 213
306 336 8 8 16 22 29 41 44 43 44 42 38 36 30 28 24 23 27 28 26 28 37 34 26 26 28 20 14 7 3 354 341 292 229 220 208 205 208 207 206 206 212
262 305 328 11 27 25 30 32 28 41 44 44 40 35 31 29 26 26 28 38 38 42 39 29 22 18 13 18 19 16 8 359 345 338 322 259 239 214 203 201 204 207 210
256 259 268 302 31 44 40 42 43 36 28 29 38 33 29 29 31 32 30 37 33 36 38 29 21 14 6 10 16 15 16 15 4 355 347 328 300 270 232 204 200 209 211
247 253 240 234 197 69 59 63 58 50 40 33 31 30 26 29 31 32 37 42 34 28 22 21 20 17 13 9 15 22 23 13 16 8 3 349 337 317 282 266 225 216 211
238 230 219 184 173 158 108 85 73 59 50 41 32 27 14 24 27 26 28 28 29 24 20 20 19 21 20 17 18 14 19 22 24 18 10 6 353 339 335 300 267 250 245
246 202 193 199 179 178 153 112 96 65 49 41 34 30 25 27 21 22 21 21 20 16 14 12 14 21 22 21 23 16 13 12 20 15 14 8 5 2 355 4 313 261 251
208 180 186 181 195 193 201 171 115 71 36 29 23 23 19 24 21 17 16 14 11 10 7 6 9 14 21 20 16 16 16 10 11 10 13 8 17 17 28 30 27 32 110
135 162 170 190 210 214 223 211 236 315 6 8 0 0 2 1 358 358 358 357 359 358 0 1 2 4 11 23 22 16 8 11 9 7 7 14 21 20 35 44 36 48 61
84 123 140 179 189 203 199 218 249 291 308 321 331 336 339 340 340 338 337 340 338 341 344 348 350 353 350 5 20 12 29 12 11 13 15 19 22 34 38 38 44 34 52
115 92 64 163 161 134 158 199 287 306 309 311 311 314 318 320 322 326 325 324 327 326 329 330 333 337 342 341 350 10 8 360 9 9 21 30 30 35 44 43 41 50 50
111 102 96 96 151 227 278 295 302 308 311 313 311 310 311 311 310 307 309 309 307 309 311 318 320 317 322 329 336 341 354 4 5 12 17 25 35 31 37 52 51 50 52